Lexington Weather

Lexington, Massachusetts, USA

29°F
4/1/2020 3:39am 
  • Lexington Conditions: Clear
  • Temperature: 29.3°F / -1.5°CColder 0.4°F than last hour.
  • Dew Point: 27.3°FDecreased 0.4°Fsince last hour.
  • Relative Humidity: 92
  • Wind: Calm, 10-min avg: Calm, gust: 2 mph
  • Barometer: 29.88 in Steady
  • Visibility: 10 miles
  • Snow Today: 0.0 in
  •   

Regional Weather Roundup
for Boston / Norton, MA

        
000
ASUS41 KBOX 301204
RWRBOX

REGIONAL WEATHER ROUNDUP
NATIONAL WEATHER SERVICE BOSTON/NORTON MA
800 AM EDT MON MAR 30 2020

NOTE:  "FAIR" INDICATES FEW OR NO CLOUDS BELOW 12,000 FEET WITH NO 
SIGNIFICANT WEATHER AND/OR OBSTRUCTIONS TO VISIBILITY.

MAZALL-301300-
EASTERN MASSACHUSETTS
  
CITY           SKY/WX    TMP DP  RH WIND       PRES   REMARKS
BOSTON         CLOUDY    39  37  92 NE16      29.99F FOG     WCI  30  
6HR MIN TEMP:  39; 6HR MAX TEMP:  41; 6HR PCP: TRACE;                

BEVERLY        CLOUDY    40  36  86 NE10      29.99F FOG              
LAWRENCE       CLOUDY    38  37  97 NE14      30.03S FOG     WCI  30  
BEDFORD        CLOUDY    40  37  89 NE10      30.00S FOG              
BLUE HILL        N/A     37  37 100 NE10G25   29.94F WCI  30          
NORWOOD        CLOUDY    42  38  85 NE10G20   29.98F FOG              
MARSHFIELD     CLOUDY    43  43 100 NE12G24   29.97S                  
PLYMOUTH       CLOUDY    41  39  93 NE17G24     N/A                   
TAUNTON        CLOUDY    41  39  93 VRB7      29.94F                  
NEW BEDFORD    CLOUDY    40  40 100 NE16G23   29.92F WCI  31          
$$

MAZALL-301300-
CAPE COD AND THE ISLANDS
  
CITY           SKY/WX    TMP DP  RH WIND       PRES   REMARKS
FALMOUTH       CLOUDY    41  41 100 NE12G23   29.92S FOG              
HYANNIS        CLOUDY    44  41  89 N12G22    29.90S FOG              
CHATHAM        CLOUDY    43  41  93 NE12G18   29.92S FOG              
PROVINCETOWN   CLOUDY    41  41 100 NE15      29.96R                  
NANTUCKET      CLOUDY    44  42  93 N17       29.88R FOG              
MARTHAS VNYRD  CLOUDY    43  41  93 NE16G25   29.89F FOG              
$$
 
MAZALL-301300-
CENTRAL AND WESTERN MASSACHUSETTS
  
CITY           SKY/WX    TMP DP  RH WIND       PRES   REMARKS
WORCESTER      FOG       35  34  96 NE10G21   29.96S VSB 1/4 WCI  27  
6HR MIN TEMP:  35; 6HR MAX TEMP:  36;                                

FITCHBURG      CLOUDY    37  34  89 VRB5      30.01S FOG              
ORANGE         CLOUDY    39  35  86 N7        30.02R                  
SPRINGFIELD    NOT AVBL                                               
WESTFIELD      CLOUDY    38  34  85 N10       30.01R WCI  31          
NORTH ADAMS    CLOUDY    38  33  82 E14       29.98S WCI  30          
PITTSFIELD     CLOUDY    37  32  82 NE10      29.95S WCI  30          
$$
 
RIZALL-301300-
RHODE ISLAND
  
CITY           SKY/WX    TMP DP  RH WIND       PRES   REMARKS
PROVIDENCE     CLOUDY    42  39  89 N18G29    29.95S                  
6HR MIN TEMP:  41; 6HR MAX TEMP:  42; 6HR PCP: TRACE;                

NEWPORT        CLOUDY    43  39  86 N13G25    29.93R                  
BLOCK ISLAND   CLOUDY    41  39  93 N17G25    29.94R                  
SMITHFIELD     LGT RAIN  39  39 100 NE15G21   29.95F FOG     WCI  31  
WESTERLY       CLOUDY    44  37  76 NE10      29.94S                  
$$
 
CTZALL-301300-
CONNECTICUT
  
CITY           SKY/WX    TMP DP  RH WIND       PRES   REMARKS
BRADLEY INTL   CLOUDY    39  36  89 N10       30.00R                  
6HR MIN TEMP:  39; 6HR MAX TEMP:  39;                                

HARTFORD       CLOUDY    41  36  82 NE12      30.00R                  
BRIDGEPORT     CLOUDY    42  37  82 N10       30.00R                  
DANBURY        CLOUDY    39  36  89 NE3       30.00R                  
GROTON         CLOUDY    41  39  93 N12       29.95S                  
NEW HAVEN      CLOUDY    42  38  85 N9        29.99R                  
CHESTER        CLOUDY    41  37  87 N9        29.97R                  
MERIDEN        CLOUDY    40  36  86 VRB6      29.99R                  
WILLIMANTIC    CLOUDY    40  37  89 N10       29.98R                  
OXFORD         CLOUDY    37  36  96 N8        29.99R WCI  31          
$$

MEZ002-015-021-024-NHZ003-005-008-011-012-014-VTZ005-008-301300-
NORTHERN NEW ENGLAND
  
CITY           SKY/WX    TMP DP  RH WIND       PRES   REMARKS
PORTLAND ME    CLOUDY    38  34  85 E15G23    30.06F WCI  29          
6HR MIN TEMP:  36; 6HR MAX TEMP:  38; 6HR PCP:  0.13;                

BANGOR ME      DRIZZLE   34  31  88 E5        30.12R FOG     WCI  30  
CONCORD NH     CLOUDY    35  33  92 NE6       30.04S WCI  30          
MANCHESTER NH  CLOUDY    38  35  89 NE8       30.01F FOG              
NASHUA NH      CLOUDY    37  37 100 NE5       30.02F FOG              
PORTSMOUTH NH  CLOUDY    38  36  95 NE13      30.02  FOG     WCI  30  
JAFFREY NH     CLOUDY    35  34  96 VRB5      29.99S FOG     WCI  31  
KEENE NH       CLOUDY    37  34  89 NE6       30.03R                  
BURLINGTON VT  FAIR      39  34  82 S7        29.90S                  
MT. WASHINGTON PTSUNNY   28  27  93 W29G37      N/A  WCI  13          
$$

NYZ052-076-301300-
EASTERN NEW YORK
  
CITY           SKY/WX    TMP DP  RH WIND       PRES   REMARKS
ALBANY         FAIR      42  35  76 S10       29.95S                  
6HR MIN TEMP:  39; 6HR MAX TEMP:  44; 6HR PCP: TRACE;                

NEW YORK CITY  CLOUDY    42  38  85 NE14      29.98R                  
6HR MIN TEMP:  42; 6HR MAX TEMP:  48; 6HR PCP: TRACE;                

$$
 
ANZALL-301300-
MARINE OBSERVATIONS
  
STATION/POSITION TIME  TEMP    WIND        PRES    VSBY  WAVE
                       AIR SEA DIR/SP/G                  HT/PER
                 (UTC) (F)     (DEG/KT/KT) (MB)    (MI)  (FT/S)
BOSTON BUOY      1150   41 43   40/ 19/ 21 1014.5S         7/ 8
BUZZARDS BAY     1100           10/ 19/ 21 1014.1R
NANTUCKET SOUND  1140                        N/A           2/ 3
MASS BAY-STELLWA 1104   40 42   70/ 19/ 23 1013.7R  1 7/8  9/ 8
ISLE OF SHOALS   1100   38      50/ 24/ 26 1015.6R
S OF BLOCK IS    1130      44                N/A           7/ 8
$$

......................KEY.........................
  SKY/WX - SKY CONDITION/PRESENT WEATHER
  TMP    - TEMPERATURE IN FAHRENHEIT
  DWPT   - DEWPOINT IN FAHRENHEIT
  RH     - RELATIVE HUMIDITY IN PERCENT
  WIND   - DIRECTION AND SPEED IN MPH
  PRES   - MEAN SEA LEVEL PRESSURE IN INCHES OF HG
  WCI    - WIND CHILL INDEX
  VSB    - VISIBILITY IN MILES
  HX     - HEAT INDEX
  TC     - TEMPERATURE IN CELSIUS
  VRB    - VARIABLE WIND DIRECTION
  N/A    - NOT AVAILABLE
  
      

Other recent Regional Weather Roundups

Wed Apr 1, 3:04am

Wed Apr 1, 2:04am

Wed Apr 1, 1:04am

Wed Apr 1, 12:04am

Tue Mar 31, 11:04pm

Tue Mar 31, 10:04pm

Tue Mar 31, 9:04pm

Tue Mar 31, 8:04pm

Tue Mar 31, 7:04pm

Tue Mar 31, 6:04pm

Tue Mar 31, 4:04pm

Tue Mar 31, 3:04pm

Tue Mar 31, 2:04pm

Tue Mar 31, 1:04pm

Tue Mar 31, 12:05pm

Tue Mar 31, 11:04am

Tue Mar 31, 10:05am

Tue Mar 31, 9:04am

Tue Mar 31, 8:04am

Tue Mar 31, 7:05am

Tue Mar 31, 6:04am

Tue Mar 31, 5:04am

Tue Mar 31, 4:04am

Tue Mar 31, 3:04am

Tue Mar 31, 2:04am

Tue Mar 31, 1:04am

Tue Mar 31, 12:04am

Mon Mar 30, 11:04pm

Mon Mar 30, 10:04pm

Mon Mar 30, 9:05pm

Mon Mar 30, 8:04pm

Mon Mar 30, 7:04pm

Mon Mar 30, 6:04pm

Mon Mar 30, 5:05pm

Mon Mar 30, 4:04pm

Mon Mar 30, 3:04pm

Mon Mar 30, 2:04pm

Mon Mar 30, 1:04pm

Mon Mar 30, 12:04pm

Mon Mar 30, 11:04am

Mon Mar 30, 10:04am

Mon Mar 30, 9:04am

Mon Mar 30, 7:04am

Mon Mar 30, 6:04am

Mon Mar 30, 5:04am

Mon Mar 30, 4:04am

Mon Mar 30, 3:05am

Mon Mar 30, 2:04am

Mon Mar 30, 1:04am

Mon Mar 30, 12:04am

Sun Mar 29, 11:04pm

Sun Mar 29, 10:05pm

Sun Mar 29, 9:04pm

Sun Mar 29, 8:04pm

Sun Mar 29, 7:04pm

Sun Mar 29, 6:04pm

Sun Mar 29, 5:05pm

Sun Mar 29, 4:04pm

Sun Mar 29, 3:04pm

Sun Mar 29, 2:04pm

Sun Mar 29, 1:05pm

Sun Mar 29, 12:04pm

Sun Mar 29, 11:04am

Sun Mar 29, 10:04am

Sun Mar 29, 9:04am

Sun Mar 29, 8:04am

Sun Mar 29, 7:04am

Sun Mar 29, 6:04am

Sun Mar 29, 5:04am

Sun Mar 29, 4:04am

Meta data:

ID: 6949a2e8-cc06-4f7f-a666-357afce82b8b
Link: https://api.weather.gov/products/6949a2e8-cc06-4f7f-a666-357afce82b8b